CAPE
1067 1146 1096 991 891 869 766 653 578 425 310 371 532 506 316 538 793 938 960 841 687 570 716 691 645 617 569 520 499 520 589 487 504 487 445 413 270 324 345 295 228 343 198 124 74 50 21 6 26 9 6 8 2 4 8 7 6 6 8 12 11 12 18 17 21 16 19 19 13 11 10 12 24 49 23 25 22 19 13 13 61 113 208 239 334
1120 1196 1197 1049 929 853 785 706 607 490 168 10 3 288 388 291 448 699 841 995 1015 970 887 831 833 739 606 503 448 474 559 493 464 406 350 345 243 251 355 397 447 533 350 117 93 57 18 5 5 26 21 14 3 6 3 5 6 10 12 11 8 10 11 11 11 12 18 16 18 17 12 9 33 29 58 38 27 23 22 19 16 22 96 81 105
911 1075 1246 1289 1124 950 878 819 775 535 451 415 0 0 0 0 26 194 483 574 612 708 779 827 873 844 660 486 461 482 550 480 423 417 389 349 310 273 360 416 503 636 351 266 123 49 22 10 6 9 12 9 6 8 1 4 7 12 12 11 10 12 12 9 10 12 8 18 19 15 17 21 22 27 30 36 35 24 26 32 20 12 13 14 17
813 845 1018 1194 1282 1151 1031 1003 940 738 459 416 422 0 0 0 0 2 243 421 492 556 591 691 877 903 894 738 468 499 528 441 459 453 416 365 332 292 254 339 678 508 326 318 147 50 25 31 29 16 17 9 5 11 2 7 9 7 10 10 9 13 14 10 7 7 7 9 11 14 21 23 21 19 25 27 26 31 31 30 25 19 16 13 9
822 837 885 1065 1223 1310 1237 1106 1036 940 782 558 441 456 345 33 1 20 11 353 439 492 640 729 874 903 867 872 624 451 462 465 473 454 433 398 366 326 286 206 170 212 337 298 248 185 36 118 81 19 28 2 5 8 10 11 9 5 9 6 8 9 10 8 8 7 5 7 6 11 13 16 20 19 20 25 31 30 39 44 38 31 29 26 16
822 850 962 1052 1130 1206 1175 1098 1027 1034 1023 828 571 496 492 481 474 465 561 578 524 608 704 763 792 821 822 838 760 499 392 405 458 466 443 393 359 339 268 202 193 186 77 246 459 336 139 311 133 10 12 2 4 11 11 9 9 10 10 5 8 11 11 10 9 9 8 6 7 20 18 20 16 22 23 24 24 35 40 39 51 82 43 24 15
720 692 812 994 1101 1127 1164 1227 1222 1201 1130 1053 897 590 519 535 561 553 540 508 400 638 796 871 837 812 810 721 582 322 276 377 412 420 332 386 380 339 233 204 216 196 60 38 285 314 306 466 36 1 0 0 2 7 12 13 9 9 6 8 9 18 16 13 10 6 7 7 8 20 20 21 23 26 31 23 24 25 36 47 62 64 59 24 29
683 754 678 738 900 1023 1085 1132 1158 1241 1205 1022 883 929 895 755 643 588 587 543 462 349 587 792 912 916 814 722 624 487 323 93 258 371 353 260 369 349 226 225 220 193 144 78 0 17 109 240 76 13 0 0 1 10 13 14 10 13 11 10 16 19 24 21 13 8 6 5 4 6 21 23 19 15 34 24 25 42 36 37 42 51 84 99 100
429 575 708 762 804 847 951 1093 1219 1273 1238 1164 1042 970 939 932 888 772 656 589 549 399 95 555 701 795 848 783 750 729 533 378 292 278 223 165 0 237 246 249 248 254 216 170 185 6 153 313 87 24 2 2 1 8 11 10 12 16 12 24 20 27 33 33 33 4 1 0 2 4 15 12 10 21 23 30 37 46 42 28 34 40 67 106 77
861 617 526 645 814 965 1076 1113 1153 1203 1228 1239 1196 1232 1241 1138 971 866 824 778 714 566 80 37 211 610 647 650 660 624 613 586 420 343 166 92 117 157 184 233 259 303 299 210 214 179 5 133 116 34 2 17 14 2 8 14 12 42 24 40 24 52 31 100 142 18 2 0 0 4 3 4 7 18 30 36 36 32 23 43 50 50 55 82 70
892 755 665 642 716 882 1006 1055 1064 1082 1054 990 1109 1212 1253 1264 1159 1011 890 847 734 665 623 614 556 511 524 555 563 599 629 567 404 323 214 108 0 176 176 239 266 276 319 251 235 225 143 0 1 0 0 24 29 5 12 10 12 41 65 61 128 136 82 162 102 74 90 3 0 0 0 1 5 13 32 40 50 44 34 68 83 72 61 70 64
769 655 666 742 815 832 878 947 985 972 943 936 1019 1072 1139 1199 1246 1162 1093 999 841 782 678 656 582 449 443 416 453 452 448 417 348 357 280 0 238 224 226 207 219 255 289 313 282 257 184 0 0 0 0 10 36 24 28 36 35 47 101 136 252 172 81 240 137 155 97 0 0 0 0 1 7 18 35 37 52 35 44 70 64 35 138 84 73
727 724 735 775 813 896 1053 1228 1255 1203 1111 1068 1050 1016 957 1009 1074 936 920 929 792 832 782 666 584 157 396 403 427 392 343 313 321 332 354 277 248 269 243 276 202 230 291 334 324 285 233 121 0 0 0 0 24 37 25 50 49 15 112 219 412 496 110 90 185 16 95 2 0 0 1 4 9 28 17 70 40 47 53 53 46 49 63 69 22
920 939 952 957 953 1004 1097 1074 1027 987 1015 925 817 859 866 942 1005 942 786 599 652 630 510 455 551 517 522 410 418 378 177 0 0 9 216 274 269 276 285 286 188 196 277 360 372 316 264 202 5 0 0 0 0 0 8 12 47 68 36 174 424 539 117 433 370 39 35 11 0 0 2 4 18 30 25 40 69 67 59 54 53 51 58 70 48
986 1010 1007 1016 1006 984 996 969 928 919 881 774 719 742 703 618 592 598 526 621 635 655 626 527 456 487 422 379 146 75 0 0 0 4 0 189 185 276 298 264 180 152 274 378 391 367 292 247 142 0 0 0 0 0 0 0 0 17 93 159 106 166 523 117 269 115 19 95 0 1 2 6 29 35 44 52 43 47 57 58 53 45 47 27 27
888 893 905 885 884 890 862 829 794 775 755 688 598 601 606 556 464 419 432 336 481 536 519 505 484 465 394 68 232 11 147 0 1 0 66 140 184 316 376 366 301 231 290 353 380 362 309 270 191 0 0 0 0 0 0 0 10 24 36 75 129 180 314 263 234 239 6 59 1 0 7 2 33 44 44 33 26 38 48 50 44 32 46 17 7
697 691 716 670 646 615 568 567 550 575 578 555 472 429 164 187 220 272 332 259 291 280 379 391 345 266 231 212 192 118 99 12 0 0 0 0 0 218 382 455 407 330 310 331 280 303 0 138 202 105 4 0 0 13 0 0 0 28 26 91 166 129 131 123 238 224 34 15 10 2 1 0 8 36 41 42 44 38 33 33 34 18 36 5 2
609 615 584 568 577 497 460 439 430 405 375 403 369 276 185 98 83 187 270 341 193 108 308 299 30 49 52 198 177 256 252 0 2 31 2 5 95 67 189 317 397 400 267 312 335 347 339 303 240 156 44 0 35 33 0 0 0 0 0 0 45 219 138 188 356 275 121 111 80 5 3 2 19 44 39 24 18 23 27 22 32 11 16 3 2
568 550 529 533 491 474 448 394 347 196 235 144 233 360 167 164 163 196 248 239 187 130 33 94 17 66 38 42 60 67 182 212 5 4 14 4 71 98 140 190 317 381 300 274 332 351 374 337 309 191 107 0 16 62 0 0 0 0 18 15 14 66 155 150 84 182 184 159 14 74 4 10 22 36 41 15 3 7 26 16 13 9 11 4 6
625 648 628 555 498 488 467 427 420 367 330 324 311 303 283 244 246 278 268 258 286 131 95 126 109 124 82 136 138 113 99 214 230 128 30 62 64 116 128 164 254 321 286 232 270 343 390 374 292 221 145 90 0 102 31 0 0 0 0 0 0 0 148 160 112 108 216 66 21 223 1 21 52 48 27 0 1 1 2 3 6 8 1 5 4
608 587 577 537 526 581 518 411 374 378 352 297 280 253 249 254 262 328 398 416 438 413 295 293 254 206 134 89 56 81 70 42 138 90 134 219 22 77 144 133 155 244 262 322 393 400 391 374 342 244 175 114 26 104 37 0 0 0 0 0 0 0 98 161 160 93 158 14 98 68 39 46 46 24 9 1 2 1 0 2 3 8 6 5 4
507 481 478 486 535 496 555 463 262 270 264 272 233 199 213 254 322 360 372 466 526 474 419 315 224 221 228 233 197 143 88 32 94 182 176 198 68 70 84 131 146 206 251 323 386 410 409 372 303 241 204 174 32 109 26 0 14 0 0 0 0 0 0 113 147 100 87 0 46 167 107 75 76 57 7 3 4 3 1 0 0 5 8 6 2
257 216 251 297 306 477 502 207 121 118 198 204 175 144 148 178 302 399 426 398 402 443 467 468 424 351 282 214 183 168 145 98 96 150 182 210 161 81 63 152 133 151 155 256 383 422 411 335 272 246 232 217 139 89 115 102 89 11 0 0 0 0 0 0 52 99 92 8 1 288 167 129 108 91 15 8 7 4 3 0 2 9 10 2 1
166 125 127 90 376 446 287 177 28 72 123 22 57 80 111 161 252 348 419 441 437 435 435 452 446 444 409 305 188 131 108 76 56 160 180 136 64 72 73 46 111 119 144 141 208 368 387 319 272 236 230 233 185 82 121 145 144 94 0 0 0 0 0 0 0 45 126 74 0 110 258 191 160 104 10 10 8 5 3 3 3 7 4 2 8
48 4 0 29 289 2 6 8 5 7 11 24 38 61 60 65 39 184 275 304 324 305 283 372 424 414 362 280 193 147 136 83 92 176 31 72 56 29 30 37 56 91 120 133 159 134 190 330 332 272 228 191 0 0 74 164 172 140 18 0 0 0 0 0 0 0 79 114 0 34 277 139 135 153 15 5 8 5 3 2 3 0 2 6 3
0 0 0 1 0 0 2 4 3 6 3 4 7 15 25 18 11 8 7 42 49 40 49 74 105 145 177 181 188 181 155 129 6 7 4 40 38 32 56 69 63 57 112 122 100 159 180 142 312 322 239 7 181 22 0 200 179 166 99 62 0 0 0 0 0 0 0 134 0 0 24 50 119 113 31 2 4 3 1 1 0 0 0 0 0
0 0 0 0 0 0 1 1 1 3 2 2 4 5 5 5 3 3 3 2 1 3 15 73 133 166 201 211 190 176 160 132 74 26 167 66 94 137 76 88 72 59 100 119 98 160 111 177 195 285 272 239 238 241 244 266 222 168 168 153 5 0 0 11 0 0 0 113 0 0 0 0 0 21 0 0 0 0 0 3 3 0 0 0 0
0 0 0 0 0 0 0 0 0 1 1 2 2 3 4 4 2 2 1 1 1 1 4 12 57 77 60 80 113 157 153 128 96 67 137 141 111 158 74 82 76 88 107 126 106 160 212 201 236 240 305 307 309 284 327 328 263 188 146 66 124 0 0 109 116 0 0 74 0 0 0 0 0 16 5 0 0 0 0 1 2 0 0 0 1
0 0 0 0 0 0 0 0 0 0 0 0 0 1 2 3 2 1 0 0 2 0 2 4 6 29 56 60 68 95 109 91 85 92 67 121 145 178 248 209 135 120 98 77 76 118 129 165 65 79 258 300 310 310 310 313 256 209 164 47 115 24 0 193 268 13 0 0 0 0 0 0 0 2 6 0 0 0 0 0 0 2 0 0 2
0 0 0 0 0 0 0 0 0 0 0 0 0 0 0 1 2 2 1 2 0 0 1 1 2 5 10 53 104 119 120 97 80 94 253 248 234 223 274 290 230 174 120 64 40 22 28 112 66 91 231 264 282 308 298 347 310 232 190 157 147 182 136 201 282 195 0 0 0 0 0 0 0 17 12 1 0 0 0 0 1 0 2 0 3
0 0 0 0 0 0 0 0 0 0 0 0 0 0 0 0 0 1 1 2 3 2 2 2 2 3 3 2 16 130 181 159 143 119 98 246 298 174 95 158 259 279 191 100 49 15 35 50 12 28 225 255 268 280 313 351 347 253 209 189 179 215 208 205 272 168 0 0 0 0 0 0 0 24 18 3 0 0 0 0 0 0 1 2 1
0 0 0 1 1 1 0 1 1 0 0 0 0 0 0 0 0 0 0 1 0 1 1 1 2 2 3 4 2 14 172 233 216 200 170 182 282 317 273 220 224 283 310 240 91 27 17 47 76 108 172 228 248 271 297 353 348 271 228 212 214 239 217 195 213 0 0 0 0 0 0 0 4 24 25 6 0 0 0 0 0 0 2 0 0
0 0 0 0 0 0 0 1 0 0 0 0 0 0 0 0 0 0 0 0 0 0 2 1 1 2 2 4 4 3 35 165 209 230 230 214 167 201 251 252 217 234 212 202 100 42 38 62 65 92 104 161 237 269 303 314 327 290 252 221 220 224 214 192 176 0 0 0 0 0 0 0 16 15 20 8 1 0 0 0 0 0 0 0 0
0 0 0 0 0 0 0 0 0 0 0 0 0 0 0 0 0 0 0 0 0 0 0 0 0 2 3 3 3 2 3 18 218 215 197 198 142 193 175 216 219 182 185 109 99 101 52 73 72 89 71 81 154 206 284 318 314 300 255 212 203 190 41 0 0 0 0 0 0 66 0 0 0 22 14 8 3 0 0 0 0 0 0 0 0
0 0 0 0 0 0 0 0 0 0 0 0 0 0 0 0 0 0 1 0 0 0 0 0 0 1 1 2 3 3 5 7 41 224 240 234 233 202 196 168 147 212 242 212 187 121 70 107 102 82 37 60 83 0 183 258 315 294 280 233 0 164 0 0 0 0 0 0 0 0 0 0 0 29 10 9 4 0 0 0 0 0 0 0 0
0 0 0 0 0 0 0 0 0 0 0 0 0 0 0 0 0 0 0 0 0 1 0 0 0 0 0 1 1 3 4 6 4 39 218 244 250 238 242 208 172 121 30 217 76 69 32 198 91 71 70 84 115 103 121 210 252 296 282 261 211 165 148 9 9 0 0 0 0 0 0 0 0 10 13 9 4 1 0 0 0 0 0 0 0
0 0 0 0 0 0 0 0 0 0 0 0 0 0 0 0 0 0 0 0 0 0 0 1 0 0 0 1 0 0 2 4 4 6 52 195 248 274 255 223 194 146 152 129 57 149 207 136 79 104 113 108 122 140 140 189 223 228 240 246 130 0 3 135 154 179 144 10 0 0 0 0 0 0 15 8 4 1 0 0 0 0 0 0 0
0 0 0 0 0 0 0 0 0 0 0 0 0 0 0 0 0 0 0 0 0 0 0 0 0 0 0 0 0 0 0 5 5 7 13 32 102 203 271 262 229 175 138 147 63 76 62 96 84 174 123 112 111 98 131 179 243 255 88 0 75 179 187 43 176 182 159 0 0 0 0 0 0 0 0 6 3 2 0 0 0 0 0 0 0
0 0 0 0 0 0 0 0 0 0 0 0 0 0 0 0 0 0 0 0 0 0 1 1 1 0 0 1 2 0 1 3 6 10 14 52 7 28 136 238 233 189 166 146 217 184 110 104 122 180 156 132 121 114 132 184 212 247 300 189 120 106 0 58 163 180 103 0 0 0 0 0 0 0 0 1 0 0 0 0 0 0 0 0 0
0 0 0 0 0 0 0 0 0 0 0 0 0 0 0 0 1 0 0 0 0 0 1 2 2 4 3 2 3 4 7 10 7 6 9 17 82 87 30 103 209 196 137 136 169 150 178 149 104 188 182 171 128 59 104 149 119 137 217 208 124 0 0 0 0 151 43 0 0 0 0 0 0 0 4 3 0 0 0 0 0 0 0 0 0
0 0 0 0 0 0 0 0 0 0 0 0 0 0 1 0 1 0 0 0 0 0 1 2 2 2 2 2 2 2 9 9 4 2 3 5 13 61 102 10 60 210 169 117 124 154 142 106 89 99 149 167 120 90 64 0 10 14 135 41 137 182 156 168 152 0 23 0 0 0 0 0 0 1 3 4 1 0 0 0 0 0 0 0 0
0 0 0 0 0 0 0 0 0 0 0 0 0 0 0 2 0 0 0 0 0 0 2 2 2 2 2 2 3 7 5 4 4 2 2 3 4 4 16 95 81 30 148 138 128 143 164 116 98 89 95 109 106 60 9 47 85 103 111 0 42 76 160 125 0 43 0 3 0 0 0 0 0 0 1 1 0 0 0 0 0 0 0 0 0
0 0 0 0 0 0 0 0 0 0 0 0 0 0 0 0 0 0 0 0 0 0 1 2 2 3 2 1 1 5 5 4 4 2 3 2 0 2 3 57 103 95 65 102 170 169 146 111 130 108 73 65 78 72 50 68 118 91 11 0 0 0 77 73 0 0 0 79 112 0 0 0 0 0 0 0 0 0 0 0 0 0 0 0 0
0 0 0 0 0 0 0 0 0 0 0 0 0 0 0 0 0 0 0 0 0 0 2 2 3 3 2 1 1 2 3 6 7 2 2 2 4 2 0 17 48 98 94 122 155 207 162 181 158 126 88 65 76 63 62 90 146 138 101 98 33 0 0 37 132 106 0 0 0 0 0 0 0 0 0 0 0 0 0 0 0 0 0 0 0
0 0 0 0 0 0 0 0 0 0 0 0 0 0 0 0 0 0 0 0 0 0 0 1 2 2 2 2 2 2 2 7 9 2 2 2 1 2 0 0 0 39 95 95 108 114 144 165 143 249 292 201 116 71 56 73 102 154 121 101 75 35 0 0 6 5 163 23 24 3 0 0 0 0 0 0 0 0 0 0 0 0 0 0 0
0 0 0 0 0 0 0 0 0 0 0 0 0 0 0 0 0 0 0 0 0 0 0 0 2 2 2 2 2 2 2 2 2 3 2 2 2 2 2 2 1 1 95 73 83 113 153 158 80 42 72 113 152 137 107 99 115 96 104 92 95 74 61 74 69 0 1 0 0 0 0 0 0 0 0 0 0 0 0 0 0 0 0 0 0
0 0 0 0 0 0 0 0 0 0 0 0 0 0 0 0 0 0 0 0 0 0 0 0 0 1 1 1 2 2 2 2 2 3 2 1 2 2 2 2 1 1 2 3 40 94 71 34 136 80 43 76 116 253 172 129 123 108 111 98 112 124 112 139 138 0 0 0 0 54 0 0 0 0 0 0 0 0 0 0 0 0 0 0 0
0 0 0 0 0 0 0 0 0 0 0 0 0 0 0 0 0 0 0 0 0 0 0 0 0 1 1 1 2 2 2 2 2 0 0 1 1 2 1 3 4 4 2 2 12 0 1 26 103 114 92 85 110 150 242 149 127 154 181 136 125 122 101 68 31 70 97 17 0 28 0 0 0 0 0 0 0 0 0 0 0 0 0 0 0
0 0 0 0 0 0 0 0 0 0 0 0 0 0 0 0 0 0 0 0 0 0 0 0 0 1 1 2 2 0 1 1 1 0 0 0 1 2 2 1 1 19 20 18 180 178 44 1 1 92 97 103 96 94 92 153 140 100 125 131 117 108 98 67 62 62 87 78 70 48 2 25 0 0 0 0 0 0 0 1 1 0 0 0 0
0 0 0 0 0 0 0 0 0 0 0 0 0 0 0 0 0 0 0 0 0 0 0 0 0 1 1 5 7 2 1 2 0 0 0 0 1 1 2 1 1 7 45 87 2 177 172 0 1 34 135 186 178 167 182 154 135 72 94 54 51 79 104 89 54 79 73 72 82 75 0 1 1 1 2 0 2 0 0 0 0 0 0 0 0
0 0 0 0 0 0 0 0 0 0 0 0 0 0 0 0 0 0 0 0 0 0 0 0 0 0 1 2 4 2 2 0 0 0 0 0 1 1 1 1 1 1 9 64 105 137 118 0 0 0 78 157 199 147 103 147 145 93 70 100 123 104 83 72 76 98 89 56 92 40 0 0 0 2 2 1 0 0 0 0 0 0 0 0 0
Wind_Speed
9 10 10 9 9 10 11 11 13 14 16 15 16 14 13 12 11 10 10 9 9 9 11 10 10 8 10 14 15 16 17 17 15 13 14 14 13 12 17 16 15 15 17 15 nan nan nan nan nan nan nan nan nan nan nan nan nan nan nan nan nan nan nan nan nan nan nan nan nan nan nan nan nan nan nan nan nan nan nan nan nan 13 14 15 15
9 10 9 6 6 7 7 9 13 15 17 nan nan 18 15 14 12 11 10 9 9 9 12 11 10 10 8 11 14 16 18 19 18 16 16 16 14 12 15 15 14 13 16 16 nan nan nan nan nan nan nan nan nan nan nan nan nan nan nan nan nan nan nan nan nan nan nan nan nan nan nan nan nan nan nan nan nan nan nan nan nan nan nan nan 12
9 8 7 7 8 7 6 9 12 14 15 15 nan nan nan nan nan 12 11 10 9 9 11 11 11 13 12 12 13 16 17 19 20 19 18 18 16 14 12 16 14 13 17 15 15 nan nan nan nan nan nan nan nan nan nan nan nan nan nan nan nan nan nan nan nan nan nan nan nan nan nan nan nan nan nan nan nan nan nan nan nan nan nan nan nan
6 6 6 8 9 9 9 9 11 14 14 15 18 nan nan nan nan nan 12 12 10 10 12 12 12 13 16 15 16 16 17 18 20 21 21 20 18 15 12 12 13 14 16 16 16 nan nan nan nan nan nan nan nan nan nan nan nan nan nan nan nan nan nan nan nan nan nan nan nan nan nan nan nan nan nan nan nan nan nan nan nan nan nan nan nan
6 6 6 8 11 11 11 12 11 11 13 15 17 19 19 nan nan nan nan 13 12 12 14 15 14 14 18 18 19 17 17 16 17 20 22 22 19 17 14 13 12 14 15 18 16 16 nan 15 nan nan nan nan nan nan nan nan nan nan nan nan nan nan nan nan nan nan nan nan nan nan nan nan nan nan nan nan nan nan nan nan nan nan nan nan nan
10 8 8 8 10 12 13 13 12 12 13 15 16 18 19 20 18 18 16 16 15 13 13 11 12 16 19 19 20 19 18 16 15 17 21 22 21 19 17 15 14 13 nan 15 15 16 13 12 14 nan nan nan nan nan nan nan nan nan nan nan nan nan nan nan nan nan nan nan nan nan nan nan nan nan nan nan nan nan nan nan nan nan nan nan nan
12 12 10 10 8 9 10 11 12 14 14 15 16 17 19 19 20 19 18 17 17 16 15 12 13 14 21 25 27 24 21 20 17 16 17 19 21 20 20 18 15 14 nan nan 14 15 13 11 nan nan nan nan nan nan nan nan nan nan nan nan nan nan nan nan nan nan nan nan nan nan nan nan nan nan nan nan nan nan nan nan nan nan nan nan nan
14 15 13 11 10 9 8 8 11 14 15 14 15 15 17 18 20 22 19 18 18 17 19 16 16 18 27 25 25 23 25 nan 20 17 18 16 17 20 20 19 16 14 15 nan nan nan 14 12 nan nan nan nan nan nan nan nan nan nan nan nan nan nan nan nan nan nan nan nan nan nan nan nan nan nan nan nan nan nan nan nan nan nan nan nan nan
13 15 15 13 13 11 9 9 10 11 12 13 15 16 17 16 17 20 23 21 20 18 nan 20 19 22 27 23 20 21 26 25 23 22 19 15 nan 18 20 18 16 14 16 16 16 nan 15 13 nan nan nan nan nan nan nan nan nan nan nan nan nan nan nan nan nan nan nan nan nan nan nan nan nan nan nan nan nan nan nan nan nan nan nan 8 nan
14 15 15 15 14 14 13 12 11 10 11 14 15 17 17 16 15 17 20 21 21 20 nan nan 21 22 24 23 20 21 22 24 25 22 21 nan 16 17 19 19 18 16 16 16 16 17 nan 14 16 nan nan nan nan nan nan nan nan nan nan nan nan nan nan 13 15 nan nan nan nan nan nan nan nan nan nan nan nan nan nan nan nan nan nan nan nan
14 15 15 15 15 14 14 13 13 13 14 15 17 18 18 17 17 16 19 20 21 21 21 22 21 22 23 21 22 21 21 21 23 21 20 20 nan 20 22 21 21 18 17 16 16 17 17 nan nan nan nan nan nan nan nan nan nan nan nan nan 10 11 nan 12 15 nan nan nan nan nan nan nan nan nan nan nan nan nan nan nan nan nan nan nan nan
16 17 17 17 16 16 16 16 16 17 16 15 17 18 16 16 16 17 16 17 19 19 21 23 24 22 21 20 21 21 21 23 21 20 21 nan 21 23 22 23 23 21 19 17 16 17 18 nan nan nan nan nan nan nan nan nan nan nan 10 11 11 11 nan 12 13 15 nan nan nan nan nan nan nan nan nan nan nan nan nan nan nan nan 9 nan nan
16 18 18 16 17 17 17 17 17 17 17 16 17 16 17 16 17 20 18 17 18 21 22 28 24 19 23 21 18 19 20 22 21 21 20 21 24 24 23 24 24 22 20 19 16 17 18 18 nan nan nan nan nan nan nan nan nan nan 8 9 10 10 11 nan 12 nan nan nan nan nan nan nan nan nan nan nan nan nan nan nan nan nan nan nan nan
16 17 16 17 17 16 16 16 18 18 18 19 18 18 17 17 18 20 22 21 19 23 24 28 23 22 22 21 20 20 20 nan nan nan 21 23 24 24 24 23 22 22 21 19 17 17 18 19 nan nan nan nan nan nan nan nan nan nan nan 7 8 6 7 9 11 nan nan nan nan nan nan nan nan nan nan nan nan nan nan nan nan nan nan nan nan
18 18 18 18 18 18 18 19 21 21 20 18 18 17 18 17 16 19 16 20 19 21 24 28 20 26 27 24 20 nan nan nan nan nan nan 24 24 23 24 23 21 21 21 20 18 17 18 19 18 nan nan nan nan nan nan nan nan nan nan 4 5 6 5 4 6 10 nan nan nan nan nan nan nan nan nan nan nan nan nan nan nan nan nan nan nan
17 18 18 18 19 20 20 19 19 20 20 18 18 17 20 19 18 18 19 16 21 23 27 26 23 30 25 nan 25 nan 19 nan nan nan nan 25 25 22 25 23 24 23 22 21 18 15 18 21 19 nan nan nan nan nan nan nan nan nan nan nan 5 3 3 5 4 7 nan nan nan nan nan nan nan nan nan nan nan nan nan nan nan nan nan nan nan
17 18 18 18 18 19 19 19 19 20 20 19 19 18 18 18 17 16 18 21 19 22 27 27 25 28 25 25 27 26 nan nan nan nan nan nan nan 22 23 24 25 25 22 21 20 17 nan 22 20 19 nan nan nan nan nan nan nan nan nan nan 5 7 4 6 7 6 nan nan nan nan nan nan nan nan nan nan nan nan nan nan nan nan nan nan nan
19 19 19 19 18 18 18 17 17 17 18 17 17 17 17 nan nan 17 16 20 21 19 21 28 nan nan nan 24 23 23 26 nan nan nan nan nan nan nan 23 24 26 25 25 24 21 20 22 22 21 18 nan nan nan nan nan nan nan nan nan nan nan 7 6 7 7 7 9 13 nan nan nan nan nan nan nan nan nan nan nan nan nan nan nan nan nan
20 20 20 20 20 19 18 18 17 17 17 17 16 17 17 17 18 19 18 19 21 19 nan nan nan nan nan nan nan nan 23 26 nan nan nan nan nan nan 23 24 26 26 25 24 22 22 22 22 21 18 17 nan nan nan nan nan nan nan nan nan nan nan 9 10 nan 5 6 11 nan nan nan nan nan nan nan nan nan nan nan nan nan nan nan nan nan
23 21 21 21 21 19 18 17 17 16 17 15 14 14 15 17 18 18 18 20 21 21 nan 24 25 25 nan 25 23 24 nan 24 23 23 nan nan nan 28 26 26 27 25 25 25 24 23 22 22 22 20 18 nan nan 17 nan nan nan nan nan nan nan nan 11 12 11 7 7 nan nan 17 nan nan nan nan nan nan nan nan nan nan nan nan nan nan nan
24 23 22 23 23 20 18 18 17 16 16 15 14 12 11 12 14 16 18 19 21 22 21 22 24 24 25 nan nan nan nan nan 27 nan 26 27 nan nan 29 30 28 26 26 26 26 25 24 23 22 20 20 19 nan 18 nan nan nan nan nan nan nan nan nan 12 12 nan 9 nan nan nan nan nan nan nan nan nan nan nan nan nan nan nan nan nan nan
23 23 24 24 24 22 21 19 18 16 16 15 14 13 12 13 14 15 16 18 22 23 22 23 25 25 26 25 24 26 nan nan nan 27 28 31 nan nan nan 31 27 27 27 26 26 26 25 25 23 21 20 20 nan 19 nan nan nan nan nan nan nan nan nan 12 13 nan nan nan nan 16 17 nan nan nan nan nan nan nan nan nan nan nan nan nan nan
24 23 24 25 24 24 22 22 20 18 17 15 14 13 13 13 15 16 17 18 20 22 23 24 25 24 25 27 25 25 26 nan nan 28 29 32 33 nan nan 31 27 28 29 27 28 26 24 25 23 21 20 20 20 nan 19 19 nan nan nan nan nan nan nan nan nan nan nan nan nan 20 16 18 17 nan nan nan nan nan nan nan nan nan nan nan nan
25 25 25 nan 24 24 24 24 nan nan 18 nan nan nan 13 14 16 17 18 19 20 20 21 23 22 23 24 27 26 24 25 nan nan 28 29 27 nan nan nan nan 33 29 35 33 28 26 23 22 21 21 21 21 21 nan 20 20 20 nan nan nan nan nan nan nan nan nan 12 nan nan 21 17 17 17 19 nan nan nan nan nan nan nan nan nan nan nan
nan nan nan nan 25 nan nan nan nan nan nan nan nan nan nan nan nan 17 19 20 21 20 20 21 22 22 22 24 26 25 24 nan nan 29 nan nan nan nan nan nan nan nan 33 35 30 26 23 20 21 22 22 22 nan nan nan 21 21 19 nan nan nan nan nan nan nan nan nan 15 nan nan 17 16 16 19 nan nan nan nan nan nan nan nan nan nan nan
nan nan nan nan nan nan nan nan nan nan nan nan nan nan nan nan nan nan nan nan nan nan nan nan 23 23 22 21 24 24 23 24 nan nan nan nan nan nan nan nan nan nan 38 34 nan 30 25 22 23 23 23 nan 23 nan nan 23 22 19 nan nan nan nan nan nan nan nan nan 15 nan nan nan nan 15 17 nan nan nan nan nan nan nan nan nan nan nan
nan nan nan nan nan nan nan nan nan nan nan nan nan nan nan nan nan nan nan nan nan nan nan nan 22 23 23 22 22 24 24 24 nan nan 28 nan nan 30 nan nan nan nan 33 33 nan 25 25 27 24 24 23 23 24 25 25 26 23 20 20 20 nan nan nan nan nan nan nan 16 nan nan nan nan nan nan nan nan nan nan nan nan nan nan nan nan nan
nan nan nan nan nan nan nan nan nan nan nan nan nan nan nan nan nan nan nan nan nan nan nan nan nan nan nan nan 22 23 25 25 nan nan 27 28 28 29 nan nan nan nan 36 32 32 27 26 29 29 23 25 25 25 26 26 26 25 22 21 nan 22 nan nan 17 16 nan nan nan nan nan nan nan nan nan nan nan nan nan nan nan nan nan nan nan nan
nan nan nan nan nan nan nan nan nan nan nan nan nan nan nan nan nan nan nan nan nan nan nan nan nan nan nan nan nan nan 24 nan nan nan nan 28 28 28 30 31 31 29 nan nan nan 27 29 30 nan nan 26 27 27 28 28 28 27 26 25 nan 23 nan nan 18 17 nan nan nan nan nan nan nan nan nan nan nan nan nan nan nan nan nan nan nan nan
nan nan nan nan nan nan nan nan nan nan nan nan nan nan nan nan nan nan nan nan nan nan nan nan nan nan nan nan 23 25 25 nan nan nan 26 26 27 27 29 31 32 27 32 nan nan nan nan 34 nan nan 31 28 29 30 29 29 28 27 26 24 25 24 23 20 18 17 nan nan nan nan nan nan nan nan nan nan nan nan nan nan nan nan nan nan nan
nan nan nan nan nan nan nan nan nan nan nan nan nan nan nan nan nan nan nan nan nan nan nan nan nan nan nan nan nan 22 25 25 25 24 nan 26 28 29 nan 29 30 28 29 nan nan nan nan nan nan nan 34 31 32 32 31 30 30 28 27 26 25 25 25 21 19 18 nan nan nan nan nan nan nan nan nan nan nan nan nan nan nan nan nan nan nan
nan nan nan nan nan nan nan nan nan nan nan nan nan nan nan nan nan nan nan nan nan nan nan nan nan nan nan nan nan nan 23 25 26 27 26 25 26 28 27 26 27 29 30 30 nan nan nan nan nan 34 34 34 34 33 31 32 31 29 28 27 26 27 26 24 20 nan nan nan nan nan nan nan nan nan nan nan nan nan nan nan nan nan nan nan nan
nan nan nan nan nan nan nan nan nan nan nan nan nan nan nan nan nan nan nan nan nan nan nan nan nan nan nan nan nan nan nan 22 24 26 27 27 26 28 29 28 25 28 31 31 30 nan nan nan nan nan 36 38 35 32 32 33 33 31 28 28 29 29 26 25 24 nan nan nan nan nan nan nan nan nan nan nan nan nan nan nan nan nan nan nan nan
nan nan nan nan nan nan nan nan nan nan nan nan nan nan nan nan nan nan nan nan nan nan nan nan nan nan nan nan nan nan nan nan 23 24 26 27 27 27 29 30 28 26 29 30 nan 30 nan nan nan nan nan nan 35 34 33 33 32 34 30 30 30 29 nan nan nan nan nan nan nan nan nan nan nan nan nan nan nan nan nan nan nan nan nan nan nan
nan nan nan nan nan nan nan nan nan nan nan nan nan nan nan nan nan nan nan nan nan nan nan nan nan nan nan nan nan nan nan nan nan 23 24 25 26 27 26 28 29 28 27 28 31 31 nan 30 37 nan nan nan nan nan 33 34 35 35 32 31 nan 31 nan nan nan nan nan nan nan nan nan nan nan nan nan nan nan nan nan nan nan nan nan nan nan
nan nan nan nan nan nan nan nan nan nan nan nan nan nan nan nan nan nan nan nan nan nan nan nan nan nan nan nan nan nan nan nan nan nan 24 25 25 27 25 27 28 27 nan 28 nan nan nan 31 nan nan nan nan 38 39 37 37 37 36 33 32 33 31 30 nan nan nan nan nan nan nan nan nan nan nan nan nan nan nan nan nan nan nan nan nan nan
nan nan nan nan nan nan nan nan nan nan nan nan nan nan nan nan nan nan nan nan nan nan nan nan nan nan nan nan nan nan nan nan nan nan nan 23 24 27 28 28 28 28 29 29 nan 30 32 31 nan 45 49 46 42 42 40 38 39 39 34 32 32 nan nan 30 32 31 30 nan nan nan nan nan nan nan nan nan nan nan nan nan nan nan nan nan nan
nan nan nan nan nan nan nan nan nan nan nan nan nan nan nan nan nan nan nan nan nan nan nan nan nan nan nan nan nan nan nan nan nan nan nan nan 22 24 27 29 29 29 28 29 nan nan nan nan nan 40 48 47 45 nan 41 38 40 39 nan nan nan 38 35 nan 34 34 35 nan nan nan nan nan nan nan nan nan nan nan nan nan nan nan nan nan nan
nan nan nan nan nan nan nan nan nan nan nan nan nan nan nan nan nan nan nan nan nan nan nan nan nan nan nan nan nan nan nan nan nan nan nan nan nan nan 22 26 29 30 29 29 31 30 29 32 34 35 42 43 40 40 39 37 39 41 40 39 41 40 nan nan 36 37 37 nan nan nan nan nan nan nan nan nan nan nan nan nan nan nan nan nan nan
nan nan nan nan nan nan nan nan nan nan nan nan nan nan nan nan nan nan nan nan nan nan nan nan nan nan nan nan nan nan nan nan nan nan nan nan nan nan nan 24 28 30 30 30 31 30 29 34 36 35 39 42 41 nan 42 42 44 44 41 38 36 nan nan nan nan 40 nan nan nan nan nan nan nan nan nan nan nan nan nan nan nan nan nan nan nan
nan nan nan nan nan nan nan nan nan nan nan nan nan nan nan nan nan nan nan nan nan nan nan nan nan nan nan nan nan nan nan nan nan nan nan nan nan nan 26 nan nan 29 30 31 31 31 32 36 nan nan 40 40 39 nan nan nan nan nan 42 nan 36 37 39 40 40 nan nan nan nan nan nan nan nan nan nan nan nan nan nan nan nan nan nan nan nan
nan nan nan nan nan nan nan nan nan nan nan nan nan nan nan nan nan nan nan nan nan nan nan nan nan nan nan nan nan nan nan nan nan nan nan nan nan nan nan nan nan nan 29 30 31 34 36 35 nan nan nan 38 40 nan nan nan nan 45 44 nan nan nan 44 44 nan nan nan nan nan nan nan nan nan nan nan nan nan nan nan nan nan nan nan nan nan
nan nan nan nan nan nan nan nan nan nan nan nan nan nan nan nan nan nan nan nan nan nan nan nan nan nan nan nan nan nan nan nan nan nan nan nan nan nan nan nan 26 nan nan 26 30 34 37 36 33 32 nan nan nan nan nan nan 41 nan nan nan nan nan nan nan nan nan nan nan 41 nan nan nan nan nan nan nan nan nan nan nan nan nan nan nan nan
nan nan nan nan nan nan nan nan nan nan nan nan nan nan nan nan nan nan nan nan nan nan nan nan nan nan nan nan nan nan nan nan nan nan nan nan nan nan nan nan nan nan nan 22 26 32 35 35 35 30 nan nan nan nan nan nan 43 46 46 nan nan nan nan nan 43 40 nan nan nan nan nan nan nan nan nan nan nan nan nan nan nan nan nan nan nan
nan nan nan nan nan nan nan nan nan nan nan nan nan nan nan nan nan nan nan nan nan nan nan nan nan nan nan nan nan nan nan nan nan nan nan nan nan nan nan nan nan nan nan nan 20 24 35 35 35 32 31 35 39 nan nan nan 45 44 45 44 nan nan nan nan nan nan 45 nan nan nan nan nan nan nan nan nan nan nan nan nan nan nan nan nan nan
nan nan nan nan nan nan nan nan nan nan nan nan nan nan nan nan nan nan nan nan nan nan nan nan nan nan nan nan nan nan nan nan nan nan nan nan nan nan nan nan nan nan nan nan nan 20 25 33 nan nan nan 38 34 36 38 nan 41 nan 44 nan nan nan nan nan nan nan nan nan nan nan nan nan nan nan nan nan nan nan nan nan nan nan nan nan nan
nan nan nan nan nan nan nan nan nan nan nan nan nan nan nan nan nan nan nan nan nan nan nan nan nan nan nan nan nan nan nan nan nan nan nan nan nan nan nan nan nan nan nan nan nan nan nan nan 33 nan nan nan 30 31 37 40 37 39 43 nan 47 43 41 47 58 nan nan nan nan nan nan nan nan nan nan nan nan nan nan nan nan nan nan nan nan
nan nan nan nan nan nan nan nan nan nan nan nan nan nan nan nan nan nan nan nan nan nan nan nan nan nan nan nan nan nan nan nan nan nan nan nan nan nan nan nan nan nan nan nan nan nan nan nan 34 33 nan nan 30 31 35 37 38 44 50 54 55 55 52 nan nan nan nan nan nan nan nan nan nan nan nan nan nan nan nan nan nan nan nan nan nan
nan nan nan nan nan nan nan nan nan nan nan nan nan nan nan nan nan nan nan nan nan nan nan nan nan nan nan nan nan nan nan nan nan nan nan nan nan nan nan nan nan nan nan nan 27 26 nan nan nan nan nan 31 nan nan nan 34 39 44 49 51 48 49 nan nan nan nan nan nan nan nan nan nan nan nan nan nan nan nan nan nan nan nan nan nan nan
nan nan nan nan nan nan nan nan nan nan nan nan nan nan nan nan nan nan nan nan nan nan nan nan nan nan nan nan nan nan nan nan nan nan nan nan nan nan nan nan nan nan nan nan nan 33 31 nan nan nan 28 30 32 33 35 38 40 nan nan nan nan nan 48 nan nan nan nan nan nan nan nan nan nan nan nan nan nan nan nan nan nan nan nan nan nan
nan nan nan nan nan nan nan nan nan nan nan nan nan nan nan nan nan nan nan nan nan nan nan nan nan nan nan nan nan nan nan nan nan nan nan nan nan nan nan nan nan nan nan nan 31 33 37 nan nan nan nan 33 34 34 34 35 40 nan nan nan 48 46 nan nan nan nan nan nan nan nan nan nan nan nan nan nan nan nan nan nan nan nan nan nan nan
Wind_Direction
303 309 300 300 301 304 299 298 298 302 295 292 291 290 292 292 291 290 286 280 271 265 265 265 270 264 276 285 292 297 296 294 293 292 291 293 296 302 324 320 316 311 312 305 nan nan nan nan nan nan nan nan nan nan nan nan nan nan nan nan nan nan nan nan nan nan nan nan nan nan nan nan nan nan nan nan nan nan nan nan nan 271 265 261 256
306 298 293 284 290 296 287 283 295 300 299 nan nan 300 300 293 293 292 289 287 277 274 271 271 272 272 269 286 293 298 296 296 296 295 292 291 293 292 323 318 316 314 303 303 nan nan nan nan nan nan nan nan nan nan nan nan nan nan nan nan nan nan nan nan nan nan nan nan nan nan nan nan nan nan nan nan nan nan nan nan nan nan nan nan 257
311 295 267 244 254 271 275 280 294 299 299 303 nan nan nan nan nan 303 302 300 301 291 286 285 279 273 270 280 289 289 291 290 292 293 293 292 291 292 302 328 321 316 302 302 303 nan nan nan nan nan nan nan nan nan nan nan nan nan nan nan nan nan nan nan nan nan nan nan nan nan nan nan nan nan nan nan nan nan nan nan nan nan nan nan nan
301 282 261 247 259 275 273 273 291 292 292 295 296 nan nan nan nan nan 294 293 294 293 296 298 286 280 273 276 277 281 282 285 288 291 291 290 291 291 290 295 320 320 306 301 298 nan nan nan nan nan nan nan nan nan nan nan nan nan nan nan nan nan nan nan nan nan nan nan nan nan nan nan nan nan nan nan nan nan nan nan nan nan nan nan nan
307 310 285 273 279 288 289 287 287 280 283 289 291 291 291 nan nan nan nan 281 282 285 291 293 290 286 277 277 278 275 268 269 277 284 291 293 293 293 291 285 284 302 299 304 302 305 nan 314 nan nan nan nan nan nan nan nan nan nan nan nan nan nan nan nan nan nan nan nan nan nan nan nan nan nan nan nan nan nan nan nan nan nan nan nan nan
306 308 307 294 290 295 294 288 285 276 276 281 285 288 291 289 289 281 281 277 277 280 281 285 288 280 281 276 266 257 262 269 268 277 282 287 290 292 294 290 286 280 nan 305 295 300 306 309 319 nan nan nan nan nan nan nan nan nan nan nan nan nan nan nan nan nan nan nan nan nan nan nan nan nan nan nan nan nan nan nan nan nan nan nan nan
305 308 305 302 307 304 296 288 280 279 280 281 285 289 294 295 290 288 285 282 281 278 280 281 279 282 274 265 268 271 264 245 237 247 266 279 285 288 290 291 288 283 nan nan 287 296 301 278 nan nan nan nan nan nan nan nan nan nan nan nan nan nan nan nan nan nan nan nan nan nan nan nan nan nan nan nan nan nan nan nan nan nan nan nan nan
301 303 309 310 318 323 314 285 273 274 279 280 286 293 298 299 299 298 293 292 290 285 284 282 276 277 273 285 292 288 272 nan 264 256 247 255 279 285 286 285 285 284 282 nan nan nan 289 283 nan nan nan nan nan nan nan nan nan nan nan nan nan nan nan nan nan nan nan nan nan nan nan nan nan nan nan nan nan nan nan nan nan nan nan nan nan
300 303 312 318 321 323 313 296 279 277 281 288 294 299 301 305 306 307 305 300 293 292 nan 289 284 279 281 293 298 289 272 268 264 267 271 268 nan 275 278 279 280 283 275 277 274 nan 276 290 nan nan nan nan nan nan nan nan nan nan nan nan nan nan nan nan nan nan nan nan nan nan nan nan nan nan nan nan nan nan nan nan nan nan nan 246 nan
299 300 307 312 313 311 306 301 294 290 293 295 299 298 300 305 308 310 310 304 299 296 nan nan 292 287 287 294 295 290 283 270 262 263 267 nan 268 266 270 272 277 274 271 271 271 270 nan 279 298 nan nan nan nan nan nan nan nan nan nan nan nan nan nan 329 325 nan nan nan nan nan nan nan nan nan nan nan nan nan nan nan nan nan nan nan nan
298 299 302 307 310 309 306 306 303 304 306 303 301 301 303 308 314 312 307 309 306 301 301 293 291 290 291 293 293 297 292 278 266 264 264 265 nan 259 258 265 270 270 268 266 267 267 266 nan nan nan nan nan nan nan nan nan nan nan nan nan 344 337 nan 334 324 nan nan nan nan nan nan nan nan nan nan nan nan nan nan nan nan nan nan nan nan
296 299 305 310 312 311 310 311 313 311 306 300 297 298 302 305 309 304 296 296 301 301 298 291 281 280 286 287 292 295 296 293 286 274 269 nan 261 259 262 262 264 266 268 267 264 264 264 nan nan nan nan nan nan nan nan nan nan nan 345 353 353 347 nan 341 328 327 nan nan nan nan nan nan nan nan nan nan nan nan nan nan nan nan 262 nan nan
290 297 305 311 308 308 309 307 305 303 300 299 301 302 303 306 300 297 300 299 300 301 290 286 290 292 289 285 284 292 296 297 296 284 275 270 265 260 258 260 259 260 264 265 262 262 261 262 nan nan nan nan nan nan nan nan nan nan 1 3 1 0 344 nan 323 nan nan nan nan nan nan nan nan nan nan nan nan nan nan nan nan nan nan nan nan
284 288 293 296 296 296 298 300 303 305 304 303 303 303 299 301 299 302 304 307 304 300 301 292 294 298 290 275 270 271 283 nan nan nan 277 268 265 263 262 262 258 257 260 262 261 259 259 260 nan nan nan nan nan nan nan nan nan nan nan 11 11 350 344 348 329 nan nan nan nan nan nan nan nan nan nan nan nan nan nan nan nan nan nan nan nan
291 293 293 291 291 291 292 293 295 298 295 298 298 297 297 294 295 305 302 303 305 300 302 306 301 288 284 279 279 nan nan nan nan nan nan 274 270 266 265 264 261 260 263 262 260 258 258 259 260 nan nan nan nan nan nan nan nan nan nan 349 352 360 337 337 335 318 nan nan nan nan nan nan nan nan nan nan nan nan nan nan nan nan nan nan nan
284 285 288 290 293 293 296 296 297 299 300 295 292 295 298 303 306 311 311 305 299 298 305 306 304 286 288 nan 288 nan 274 nan nan nan nan 282 277 269 262 263 259 258 260 263 262 261 263 258 255 nan nan nan nan nan nan nan nan nan nan nan 290 320 339 317 323 321 nan nan nan nan nan nan nan nan nan nan nan nan nan nan nan nan nan nan nan
282 284 284 284 286 288 290 294 296 300 301 298 297 299 300 301 305 308 308 306 303 298 299 302 303 303 300 285 280 285 nan nan nan nan nan nan nan 272 261 260 260 258 261 262 260 253 nan 253 253 251 nan nan nan nan nan nan nan nan nan nan 298 305 314 308 315 319 nan nan nan nan nan nan nan nan nan nan nan nan nan nan nan nan nan nan nan
285 285 285 288 287 285 285 287 291 294 297 298 297 298 303 nan nan 309 304 306 308 304 299 299 nan nan nan 302 296 290 281 nan nan nan nan nan nan nan 257 254 256 255 255 258 259 254 253 253 254 253 nan nan nan nan nan nan nan nan nan nan nan 283 293 298 314 315 332 322 nan nan nan nan nan nan nan nan nan nan nan nan nan nan nan nan nan
281 283 284 286 287 286 289 292 295 298 299 299 302 308 311 312 314 318 318 311 309 311 nan nan nan nan nan nan nan nan 295 289 nan nan nan nan nan nan 259 251 250 252 253 256 258 255 252 252 253 253 252 nan nan nan nan nan nan nan nan nan nan nan 282 283 nan 298 313 323 nan nan nan nan nan nan nan nan nan nan nan nan nan nan nan nan nan
279 281 284 283 282 282 282 284 288 297 299 300 301 306 312 315 319 322 322 317 314 314 nan 303 305 301 nan 305 302 300 nan 298 294 295 nan nan nan 265 256 250 246 248 253 255 257 258 256 253 252 251 249 nan nan 254 nan nan nan nan nan nan nan nan 277 282 288 260 265 nan nan 311 nan nan nan nan nan nan nan nan nan nan nan nan nan nan nan
280 281 280 279 279 279 281 286 292 295 296 298 299 303 311 316 319 322 320 319 314 311 310 306 305 305 302 nan nan nan nan nan 294 nan 298 297 nan nan 257 248 244 244 248 249 250 253 255 254 252 252 250 249 nan 252 nan nan nan nan nan nan nan nan nan 282 285 nan 262 nan nan nan nan nan nan nan nan nan nan nan nan nan nan nan nan nan nan
279 281 280 277 275 276 278 282 286 291 295 299 302 304 308 312 317 321 321 321 314 314 314 308 305 306 307 306 304 295 nan nan nan 291 282 283 nan nan nan 255 247 244 248 248 249 251 253 253 252 250 250 250 nan 251 nan nan nan nan nan nan nan nan nan 284 284 nan nan nan nan 303 304 nan nan nan nan nan nan nan nan nan nan nan nan nan nan
278 279 277 274 274 274 275 278 281 285 286 287 290 296 302 305 309 313 315 316 316 319 319 316 310 307 306 306 309 305 296 nan nan 291 291 280 271 nan nan 253 247 239 244 246 246 248 251 254 255 253 253 253 254 nan 254 255 nan nan nan nan nan nan nan nan nan nan nan nan nan 296 306 305 307 nan nan nan nan nan nan nan nan nan nan nan nan
278 278 274 nan 273 274 273 273 nan nan 276 nan nan nan 286 294 298 300 304 310 315 317 317 317 319 315 309 304 308 308 303 nan nan 287 291 293 nan nan nan nan 242 240 242 244 243 244 248 253 255 255 255 252 254 nan 255 256 256 nan nan nan nan nan nan nan nan nan 276 nan nan 292 305 308 309 306 nan nan nan nan nan nan nan nan nan nan nan
nan nan nan nan 275 nan nan nan nan nan nan nan nan nan nan nan nan 291 298 301 303 307 310 313 316 314 306 301 302 306 306 nan nan 280 nan nan nan nan nan nan nan nan 242 244 241 243 244 248 252 253 254 254 nan nan nan 254 253 263 nan nan nan nan nan nan nan nan nan 276 nan nan 298 306 310 308 nan nan nan nan nan nan nan nan nan nan nan
nan nan nan nan nan nan nan nan nan nan nan nan nan nan nan nan nan nan nan nan nan nan nan nan 315 319 318 308 300 302 302 295 nan nan nan nan nan nan nan nan nan nan 240 242 nan 241 237 241 246 248 250 nan 253 nan nan 254 253 262 nan nan nan nan nan nan nan nan nan 279 nan nan nan nan 297 304 nan nan nan nan nan nan nan nan nan nan nan
nan nan nan nan nan nan nan nan nan nan nan nan nan nan nan nan nan nan nan nan nan nan nan nan 311 314 318 315 303 301 301 296 nan nan 286 nan nan 289 nan nan nan nan 239 241 nan 239 237 238 245 246 248 251 252 253 254 253 256 264 268 262 nan nan nan nan nan nan nan 282 nan nan nan nan nan nan nan nan nan nan nan nan nan nan nan nan nan
nan nan nan nan nan nan nan nan nan nan nan nan nan nan nan nan nan nan nan nan nan nan nan nan nan nan nan nan 311 304 300 298 nan nan 290 284 286 284 nan nan nan nan 241 240 239 232 237 236 238 243 246 249 249 251 254 257 254 265 267 nan 255 nan nan 278 279 nan nan nan nan nan nan nan nan nan nan nan nan nan nan nan nan nan nan nan nan
nan nan nan nan nan nan nan nan nan nan nan nan nan nan nan nan nan nan nan nan nan nan nan nan nan nan nan nan nan nan 300 nan nan nan nan 287 286 293 289 284 277 255 nan nan nan 235 237 240 nan nan 247 247 247 247 250 250 254 260 253 nan 254 nan nan 277 279 nan nan nan nan nan nan nan nan nan nan nan nan nan nan nan nan nan nan nan nan
nan nan nan nan nan nan nan nan nan nan nan nan nan nan nan nan nan nan nan nan nan nan nan nan nan nan nan nan 313 311 304 nan nan nan 291 289 287 293 286 273 271 264 249 nan nan nan nan 238 nan nan 245 248 248 247 248 249 256 263 254 254 253 252 266 277 279 280 nan nan nan nan nan nan nan nan nan nan nan nan nan nan nan nan nan nan nan
nan nan nan nan nan nan nan nan nan nan nan nan nan nan nan nan nan nan nan nan nan nan nan nan nan nan nan nan nan 310 308 303 299 292 nan 287 284 289 nan 272 267 263 252 nan nan nan nan nan nan nan 242 247 248 247 247 247 254 263 256 254 254 259 268 270 282 283 nan nan nan nan nan nan nan nan nan nan nan nan nan nan nan nan nan nan nan
nan nan nan nan nan nan nan nan nan nan nan nan nan nan nan nan nan nan nan nan nan nan nan nan nan nan nan nan nan nan 306 307 302 295 292 291 286 286 287 277 266 262 256 251 nan nan nan nan nan 241 242 244 247 248 248 247 250 266 255 256 258 264 259 256 277 nan nan nan nan nan nan nan nan nan nan nan nan nan nan nan nan nan nan nan nan
nan nan nan nan nan nan nan nan nan nan nan nan nan nan nan nan nan nan nan nan nan nan nan nan nan nan nan nan nan nan nan 306 304 295 289 289 286 283 285 284 274 263 259 256 252 nan nan nan nan nan 242 245 243 247 249 249 248 250 254 254 257 257 256 255 258 nan nan nan nan nan nan nan nan nan nan nan nan nan nan nan nan nan nan nan nan
nan nan nan nan nan nan nan nan nan nan nan nan nan nan nan nan nan nan nan nan nan nan nan nan nan nan nan nan nan nan nan nan 306 303 294 288 285 282 281 283 283 276 268 259 nan 252 nan nan nan nan nan nan 242 244 248 250 248 249 252 251 251 254 nan nan nan nan nan nan nan nan nan nan nan nan nan nan nan nan nan nan nan nan nan nan nan
nan nan nan nan nan nan nan nan nan nan nan nan nan nan nan nan nan nan nan nan nan nan nan nan nan nan nan nan nan nan nan nan nan 301 297 291 286 285 283 281 281 282 278 270 259 255 nan 248 255 nan nan nan nan nan 244 244 247 250 250 250 nan 249 nan nan nan nan nan nan nan nan nan nan nan nan nan nan nan nan nan nan nan nan nan nan nan
nan nan nan nan nan nan nan nan nan nan nan nan nan nan nan nan nan nan nan nan nan nan nan nan nan nan nan nan nan nan nan nan nan nan 295 293 288 284 284 281 279 279 nan 276 nan nan nan 254 nan nan nan nan 239 237 240 242 245 245 246 247 250 251 251 nan nan nan nan nan nan nan nan nan nan nan nan nan nan nan nan nan nan nan nan nan nan
nan nan nan nan nan nan nan nan nan nan nan nan nan nan nan nan nan nan nan nan nan nan nan nan nan nan nan nan nan nan nan nan nan nan nan 294 292 286 282 280 277 276 275 276 nan 274 271 267 nan 259 251 243 239 237 240 244 243 243 245 248 252 nan nan 253 253 253 261 nan nan nan nan nan nan nan nan nan nan nan nan nan nan nan nan nan nan
nan nan nan nan nan nan nan nan nan nan nan nan nan nan nan nan nan nan nan nan nan nan nan nan nan nan nan nan nan nan nan nan nan nan nan nan 280 289 286 280 276 274 276 275 nan nan nan nan nan 259 246 241 238 nan 239 243 245 242 nan nan nan 245 245 nan 250 250 249 nan nan nan nan nan nan nan nan nan nan nan nan nan nan nan nan nan nan
nan nan nan nan nan nan nan nan nan nan nan nan nan nan nan nan nan nan nan nan nan nan nan nan nan nan nan nan nan nan nan nan nan nan nan nan nan nan 284 281 278 276 277 277 274 274 276 279 275 260 243 240 244 243 238 242 246 246 243 239 239 243 nan nan 251 248 247 nan nan nan nan nan nan nan nan nan nan nan nan nan nan nan nan nan nan
nan nan nan nan nan nan nan nan nan nan nan nan nan nan nan nan nan nan nan nan nan nan nan nan nan nan nan nan nan nan nan nan nan nan nan nan nan nan nan 281 279 274 273 275 277 273 270 274 273 259 246 245 244 nan 237 238 242 242 241 242 243 nan nan nan nan 254 nan nan nan nan nan nan nan nan nan nan nan nan nan nan nan nan nan nan nan
nan nan nan nan nan nan nan nan nan nan nan nan nan nan nan nan nan nan nan nan nan nan nan nan nan nan nan nan nan nan nan nan nan nan nan nan nan nan 257 nan nan 278 271 270 271 270 265 269 nan nan 246 248 250 nan nan nan nan nan 245 nan 239 242 244 245 246 nan nan nan nan nan nan nan nan nan nan nan nan nan nan nan nan nan nan nan nan
nan nan nan nan nan nan nan nan nan nan nan nan nan nan nan nan nan nan nan nan nan nan nan nan nan nan nan nan nan nan nan nan nan nan nan nan nan nan nan nan nan nan 276 271 269 267 265 271 nan nan nan 246 252 nan nan nan nan 240 241 nan nan nan 238 238 nan nan nan nan nan nan nan nan nan nan nan nan nan nan nan nan nan nan nan nan nan
nan nan nan nan nan nan nan nan nan nan nan nan nan nan nan nan nan nan nan nan nan nan nan nan nan nan nan nan nan nan nan nan nan nan nan nan nan nan nan nan 255 nan nan 270 270 267 265 269 270 259 nan nan nan nan nan nan 250 nan nan nan nan nan nan nan nan nan nan nan 255 nan nan nan nan nan nan nan nan nan nan nan nan nan nan nan nan
nan nan nan nan nan nan nan nan nan nan nan nan nan nan nan nan nan nan nan nan nan nan nan nan nan nan nan nan nan nan nan nan nan nan nan nan nan nan nan nan nan nan nan 275 263 264 268 267 268 269 nan nan nan nan nan nan 256 250 247 nan nan nan nan nan 246 249 nan nan nan nan nan nan nan nan nan nan nan nan nan nan nan nan nan nan nan
nan nan nan nan nan nan nan nan nan nan nan nan nan nan nan nan nan nan nan nan nan nan nan nan nan nan nan nan nan nan nan nan nan nan nan nan nan nan nan nan nan nan nan nan 278 262 256 260 262 264 270 266 259 nan nan nan 257 255 251 251 nan nan nan nan nan nan 246 nan nan nan nan nan nan nan nan nan nan nan nan nan nan nan nan nan nan
nan nan nan nan nan nan nan nan nan nan nan nan nan nan nan nan nan nan nan nan nan nan nan nan nan nan nan nan nan nan nan nan nan nan nan nan nan nan nan nan nan nan nan nan nan 274 263 257 nan nan nan 260 259 255 257 nan 259 nan 252 nan nan nan nan nan nan nan nan nan nan nan nan nan nan nan nan nan nan nan nan nan nan nan nan nan nan
nan nan nan nan nan nan nan nan nan nan nan nan nan nan nan nan nan nan nan nan nan nan nan nan nan nan nan nan nan nan nan nan nan nan nan nan nan nan nan nan nan nan nan nan nan nan nan nan 255 nan nan nan 262 258 256 257 260 259 260 nan 259 257 252 241 235 nan nan nan nan nan nan nan nan nan nan nan nan nan nan nan nan nan nan nan nan
nan nan nan nan nan nan nan nan nan nan nan nan nan nan nan nan nan nan nan nan nan nan nan nan nan nan nan nan nan nan nan nan nan nan nan nan nan nan nan nan nan nan nan nan nan nan nan nan 261 254 nan nan 260 261 259 258 255 254 251 248 246 245 245 nan nan nan nan nan nan nan nan nan nan nan nan nan nan nan nan nan nan nan nan nan nan
nan nan nan nan nan nan nan nan nan nan nan nan nan nan nan nan nan nan nan nan nan nan nan nan nan nan nan nan nan nan nan nan nan nan nan nan nan nan nan nan nan nan nan nan 259 274 nan nan nan nan nan 254 nan nan nan 268 260 258 255 252 251 250 nan nan nan nan nan nan nan nan nan nan nan nan nan nan nan nan nan nan nan nan nan nan nan
nan nan nan nan nan nan nan nan nan nan nan nan nan nan nan nan nan nan nan nan nan nan nan nan nan nan nan nan nan nan nan nan nan nan nan nan nan nan nan nan nan nan nan nan nan 259 272 nan nan nan 258 254 257 258 261 261 263 nan nan nan nan nan 245 nan nan nan nan nan nan nan nan nan nan nan nan nan nan nan nan nan nan nan nan nan nan
nan nan nan nan nan nan nan nan nan nan nan nan nan nan nan nan nan nan nan nan nan nan nan nan nan nan nan nan nan nan nan nan nan nan nan nan nan nan nan nan nan nan nan nan 245 253 258 nan nan nan nan 244 243 249 254 265 268 nan nan nan 259 253 nan nan nan nan nan nan nan nan nan nan nan nan nan nan nan nan nan nan nan nan nan nan nan